Regional Weather Roundup
Issued by NWS

Home | Current Version | Previous Version | Text Only | Print | Product List | Glossary On
Versions: 1 2 3 4 5 6 7 8 9 10 11 12 13 14 15 16 17 18 19 20 21 22 23 24 25 26 27 28 29 30 31 32 33 34 35 36 37 38 39 40 41 42 43 44 45 46 47 48 49 50
721
ASUS45 KABQ 100710
RWRNM
NEW MEXICO REGIONAL WEATHER ROUNDUP
NATIONAL WEATHER SERVICE ALBUQUERQUE NM
1200 AM MST SAT DEC 10 2016

NOTE: "FAIR" MEANS FEW OR NO CLOUDS BELOW 12,000 FEET AGL WITH NO
       SIGNIFICANT WEATHER OR OBSTRUCTIONS TO VISION.

      THIS PRODUCT IS RELEASED AS TWO VERSIONS.  ONE VERSION NEAR
      THE TOP OF THE HOUR CONTAINING PRELIMINARY DATA FROM ALBUQUERQUE
      AND OTHER STATIONS.  A FINAL VERSION WITH ADDITIONAL DATA IS
      ISSUED ABOUT 10 MINUTES AFTER THE HOUR.

NMZ501-503-504-510>518-100800-
NORTHWEST PLATEAU/NORTHCENTRAL MOUNTAINS

CITY           SKY/WX    TMP DP  RH WIND       PRES   REMARKS
FARMINGTON     FAIR      26  21  81 E6        30.26F WCI  19
LOS ALAMOS     FAIR      36  22  58 CALM      30.30F
SANTA FE       FAIR      27  21  78 CALM      30.28F
TAOS           FAIR      23  12  63 SE3       30.28F
ANGEL FIRE     FAIR      25  19  77 E6        30.26F WCI  18

$$
NMZ402-403-502-505>509-100800-
WESTCENTRAL MOUNTAINS/SOUTHWEST MOUNTAINS

CITY           SKY/WX    TMP DP  RH WIND       PRES   REMARKS
GALLUP         FAIR      21  19  92 CALM      30.28F
GRANTS         FAIR      23  21  89 NW7       30.32S WCI  15
SILVER CITY    FAIR      31  29  92 CALM      30.30S

$$
NMZ407-409-411-412-100800-
SOUTHERN DESERTS

CITY           SKY/WX    TMP DP  RH WIND       PRES   REMARKS
DEMING         FAIR      33  28  81 N5        30.30S WCI  29
LAS CRUCES     FAIR      29  24  82 CALM      30.30F
HOLLOMAN AFB   FAIR      28  20  72 E5        30.35S WCI  23
T OR C         FAIR      34  25  69 W5        30.29F WCI  30

$$
NMZ519>523-100800-
CENTRAL VALLEYS/CENTRAL HIGHLANDS

CITY           SKY/WX    TMP DP  RH WIND       PRES   REMARKS
ALBUQUERQUE    FAIR      32  25  75 CALM      30.30F
DOUBLE EAGLE   FAIR      23  19  84 CALM      30.29F
MORIARTY ARPT  FAIR      18  14  86 NE5       30.29F WCI  11
CLINES CORNERS FAIR      26  21  81 W12       30.27F WCI  16
BELEN          FAIR      29  25  82 CALM      30.29F
SOCORRO        FAIR      31  26  80 SW6       30.30S WCI  25

$$
NMZ524>526-539-540-100800-
SOUTHCENTRAL MOUNTAINS

CITY           SKY/WX    TMP DP  RH WIND       PRES   REMARKS
RUIDOSO        FAIR      39  23  52 NW7       30.29F WCI  34

$$
NMZ527>531-100800-
NORTHEAST HIGHLANDS/NORTHEAST PLAINS

CITY           SKY/WX    TMP DP  RH WIND       PRES   REMARKS
LAS VEGAS      FAIR      28  18  66 E7        30.21F WCI  21
RATON          FAIR      23  16  74 N9        30.16F WCI  13
CLAYTON        FAIR      29  28  96 SW7       30.13F WCI  22

$$
NMZ532>537-100800-
EASTCENTRAL PLAINS

CITY           SKY/WX    TMP DP  RH WIND       PRES   REMARKS
TUCUMCARI      FAIR      30  25  81 SW9       30.13F WCI  22
CANNON AFB     FAIR      25  25 100 CALM      30.20F
CLOVIS AIRPORT FAIR      23  19  86 SW8       30.20F WCI  14

$$
NMZ028-029-538-100800-
SOUTHEAST PLAINS

CITY           SKY/WX    TMP DP  RH WIND       PRES   REMARKS
ROSWELL        FAIR      26  21  81 CALM      30.23F
ARTESIA        FAIR      27  27 100 N6        30.25F WCI  20
CARLSBAD       NOT AVBL


$$




USA.gov is the U.S. government's official web portal to all federal, state and local government web resources and services.